Weather in Norvash-Shigali

Russia / Chuvash Republic     55°01′55″N   47°27′31″E
temp.,
°C
wind,
m/s
gust,
m/s
humid.,
%
clouds,
%
prec.,
mm/h
press.,
hPa
HPBL,
m
20 june, sun
sun2000:00+17w411905 0.0 1022194
03:00+16w48911 0.0 1023129
06:00+19wnw47815 0.0 1023190
09:00+24nw45655 0.0 1022590
12:00+28nw34505 0.0 10221526
15:00+29n34470 0.0 10221913
18:00+27n23670 0.0 1021223
21:00+21w22835 0.0 102222
21 june, mon
mon2100:00+19w11880 0.0 102311
03:00+18wsw22890 0.0 102311
06:00+21wsw23810 0.0 1023134
09:00+26wsw33635 0.0 1023878
12:00+28wnw23480 0.0 10221783
15:00+29nw22464 0.0 10221995
18:00+27wnw356510 0.0 1021186
21:00+22wnw22775 0.0 102214
22 june, tue
tue2200:00+20w228214 0.0 102212
03:00+19w22874 0.0 102313
06:00+22w23795 0.0 1023146
09:00+27wnw226360 0.0 1023607
12:00+29nw2253100 0.0 10231604
15:00+30n124632 0.0 10221981
18:00+27wnw3362100 0.0 102154
21:00+23nw22800 0.1 102214
23 june, wed
wed2300:00+21w22820 0.0 102216
03:00+20wnw22840 0.0 102213
06:00+23wnw23780 0.0 1022134
09:00+27wnw23610 0.0 1021684
12:00+30nnw34460 0.0 10212351
15:00+30n444662 0.0 10201813
18:00+26wnw226629 0.0 102037
21:00+22wnw37761 0.0 1020114
24 june, thu
thu2400:00+20wnw227924 0.0 102020
03:00+19w368392 0.0 1019103
06:00+21nnw48785 0.1 1020291
09:00+26nw3365100 0.1 1019442
12:00+28n56545 0.0 10191131
15:00+29nne45544 0.0 10191264
18:00+28n24657 0.1 1018465
21:00+23wsw2274100 0.1 101911